Wind_Speed
6 5 5 4 4 5 4 4 4 4 4 5 5 5 5 5 6 6 6 7 7 7 7 8 8 8 8 9 10 11 11 12 13 14 14 14 15 15 16 17 18 19 20
7 6 6 6 6 6 6 6 6 6 6 6 6 6 6 6 6 7 7 7 8 8 8 9 9 10 10 11 12 13 13 14 14 15 16 16 17 17 18 19 20 20 22
7 7 7 7 7 7 7 7 7 7 7 8 7 8 8 8 8 8 9 9 9 10 10 10 11 12 13 13 14 14 15 15 16 16 17 18 19 20 21 22 22 23 24
8 8 8 9 8 8 8 8 8 8 8 9 9 9 9 9 9 10 10 10 11 12 13 13 14 14 15 15 15 16 16 17 17 17 18 20 20 21 22 23 23 25 25
9 9 9 9 9 9 9 9 9 9 9 9 10 10 11 11 12 12 12 13 13 14 14 15 15 16 16 16 17 18 18 18 19 19 20 21 22 22 23 23 25 26 26
10 10 10 10 10 10 10 10 10 10 11 11 11 11 12 12 13 14 14 14 14 14 15 15 16 17 17 18 18 19 19 20 20 20 21 22 22 23 24 25 25 26 26
11 10 10 11 11 11 11 12 12 12 12 12 12 13 13 14 14 14 14 14 14 15 16 17 18 18 18 19 19 20 20 20 21 22 22 23 24 24 25 26 27 27 27
11 11 11 12 12 12 13 13 13 13 13 13 14 14 15 15 14 14 15 15 16 17 17 18 18 18 19 20 21 21 22 22 23 24 24 25 25 26 27 27 28 28 29
12 12 12 12 12 13 13 13 13 14 14 15 14 15 15 16 16 16 16 16 17 17 18 19 19 20 21 22 22 23 24 25 26 26 26 27 28 29 29 30 30 30 31
13 14 14 13 13 13 14 15 14 15 15 15 16 16 16 17 17 18 18 18 18 19 20 21 21 22 23 23 24 25 26 27 27 28 28 29 30 30 31 31 32 32 32
14 15 15 14 14 14 14 15 15 16 16 16 17 17 17 17 18 18 18 19 21 21 22 23 23 24 24 24 25 26 27 27 28 28 29 30 31 32 32 32 33 33 34
16 16 16 16 16 15 16 16 17 17 17 18 18 18 18 18 19 19 19 20 21 22 23 25 25 25 25 25 26 27 28 29 29 29 30 30 31 32 33 34 35 36 36
17 17 17 17 17 17 17 17 18 18 18 19 19 19 19 19 20 21 21 22 23 24 24 25 25 25 25 26 26 27 28 28 29 30 30 30 31 32 34 35 36 37 38
18 18 17 17 18 18 18 19 19 19 19 19 20 20 21 21 21 22 22 23 24 24 24 24 24 25 26 26 27 28 29 30 30 30 31 32 33 34 35 35 36 36 38
19 19 19 19 19 19 19 19 20 20 19 20 20 21 21 21 22 23 23 23 23 24 24 24 25 26 27 27 28 29 30 30 31 31 32 33 34 35 36 36 37 38 39
19 19 20 20 20 20 19 19 20 19 20 21 21 22 22 22 23 23 23 23 23 24 24 25 26 27 28 28 29 29 30 30 32 33 34 35 36 36 37 38 39 40 40
20 20 20 20 20 20 19 19 20 20 20 21 22 22 23 23 23 23 24 24 24 25 26 27 28 28 29 29 29 30 31 33 34 35 35 36 37 38 39 40 41 41 42
22 21 21 21 21 21 20 21 21 21 22 22 23 23 23 23 24 25 25 26 26 27 28 28 29 29 30 30 31 32 33 34 35 36 37 38 38 39 41 42 43 43 44
23 22 22 22 22 22 22 22 22 22 23 24 25 25 25 25 25 26 27 27 28 29 30 30 31 31 32 32 33 34 35 36 37 37 38 39 39 40 42 43 43 44 45
24 23 23 23 24 24 24 24 24 24 24 25 25 25 26 26 27 27 28 29 30 30 31 31 32 32 33 34 35 35 36 37 38 38 39 40 41 42 43 44 44 44 45
25 25 25 25 25 25 25 25 25 25 26 26 26 26 26 27 28 29 30 30 31 31 32 33 33 34 34 35 36 36 37 37 38 39 41 42 43 43 44 44 44 44 45
27 27 27 27 27 27 27 27 27 27 27 27 28 28 28 28 29 30 31 32 32 33 34 34 34 35 36 36 37 37 38 38 39 40 42 42 43 43 44 44 44 44 44
27 28 28 28 28 28 28 28 28 28 28 29 29 30 31 31 32 32 33 33 33 34 34 35 35 36 36 36 37 38 38 39 40 41 42 42 43 44 44 44 44 44 44
28 28 29 28 28 29 29 29 29 29 30 30 31 32 32 32 33 33 34 34 34 35 35 35 35 36 36 37 38 38 39 40 41 42 43 43 44 44 44 44 44 44 43
27 28 28 28 28 29 29 30 30 31 31 32 32 32 33 33 34 34 35 35 35 36 36 36 37 38 38 39 39 40 41 41 42 43 44 44 44 44 44 44 44 44 43
29 29 30 30 30 31 31 31 32 32 32 33 33 33 33 34 34 35 35 35 35 36 37 37 38 39 40 40 40 41 41 42 43 44 44 44 44 44 43 44 44 43 43
Wind_Direction
236 238 248 257 260 261 256 253 250 254 257 265 273 274 279 284 289 293 301 300 301 303 304 304 306 308 307 307 307 304 303 302 301 300 298 297 297 295 294 292 291 290 289
237 238 250 258 257 255 253 255 258 261 264 268 273 274 279 287 292 295 296 299 300 302 301 301 301 302 304 305 304 304 303 301 298 297 296 296 296 295 295 293 292 291 291
239 240 252 259 260 258 256 259 261 265 268 273 276 277 277 281 288 293 295 295 296 300 300 300 300 301 302 304 304 303 303 302 299 297 297 297 297 297 295 294 292 291 290
246 247 252 259 260 261 261 263 266 266 271 275 277 280 281 281 286 291 293 293 294 296 296 297 298 300 299 301 301 302 302 301 300 299 298 298 298 296 295 294 293 291 291
252 252 256 259 260 262 263 262 267 270 273 274 276 280 283 285 287 288 289 292 294 295 297 297 297 299 300 299 300 300 300 300 299 298 298 298 299 299 298 299 298 296 294
254 256 258 258 260 265 266 264 266 268 270 273 274 276 282 287 289 288 289 290 293 294 296 297 297 297 298 300 302 302 302 301 301 300 300 300 300 299 299 299 298 298 297
254 256 257 257 260 264 265 264 266 268 269 272 274 277 280 285 288 288 290 290 293 296 297 297 298 299 300 301 302 301 302 302 301 300 300 301 300 299 300 299 298 297 297
254 257 258 261 264 265 265 266 268 272 271 272 275 278 281 283 285 285 288 291 295 296 296 297 298 298 300 301 302 301 302 301 301 300 300 299 299 299 299 299 298 297 296
256 259 260 265 268 267 266 267 270 271 273 274 275 280 283 283 283 284 286 289 293 295 297 297 297 299 300 300 300 300 301 301 300 300 299 298 299 299 299 298 298 297 297
257 257 260 264 269 270 269 270 271 271 274 275 278 282 283 283 283 284 285 287 289 293 296 298 298 298 299 299 300 300 300 301 300 300 298 298 299 300 300 299 299 298 298
258 257 259 264 269 271 272 272 273 274 275 277 279 281 283 282 284 285 286 288 291 292 293 295 297 298 298 299 299 301 301 302 302 301 300 300 300 300 301 300 300 300 299
260 261 262 264 268 270 271 273 275 275 276 279 280 282 283 285 287 288 289 291 293 293 294 294 296 298 299 299 300 300 301 301 302 302 301 301 302 303 302 302 301 301 300
264 264 263 263 267 269 272 273 274 276 278 280 282 283 285 285 287 288 289 291 292 293 294 296 296 298 300 300 301 302 303 302 303 303 303 303 303 303 303 303 302 302 302
265 264 264 266 270 270 271 273 275 276 277 280 283 284 284 285 286 287 288 290 292 293 295 298 298 300 301 301 302 302 303 302 302 302 303 303 303 303 304 304 304 303 303
265 264 265 267 271 272 272 273 274 275 278 281 283 284 285 286 287 287 289 291 293 294 296 298 300 301 301 302 303 304 304 303 302 302 303 304 304 304 304 304 304 304 303
265 265 266 268 269 271 273 275 274 276 280 280 281 283 284 285 286 287 288 289 291 293 295 297 299 301 302 302 303 304 305 305 305 304 304 304 304 305 305 304 304 304 303
265 266 267 269 270 270 273 274 276 279 282 283 284 285 286 286 287 288 288 289 291 293 295 297 299 300 300 301 302 303 304 305 305 305 305 304 304 304 304 305 304 304 304
265 266 267 268 269 272 273 273 275 279 282 284 286 286 287 286 286 287 289 291 293 294 296 297 299 300 300 301 301 303 304 305 305 305 305 305 305 305 305 306 305 305 305
264 264 266 268 269 271 274 276 277 278 280 281 283 283 284 285 287 289 290 292 293 294 296 297 298 299 299 300 301 303 304 305 305 306 306 306 306 306 307 307 306 306 306
264 265 266 268 269 272 274 277 279 281 282 283 283 283 282 284 287 289 290 292 293 294 295 296 297 299 299 300 301 302 303 305 305 305 306 306 307 307 308 308 307 307 307
263 264 265 267 269 272 274 276 279 280 282 284 285 285 284 284 286 288 291 292 293 294 294 295 297 298 299 300 301 302 304 304 305 306 306 306 307 308 308 309 309 309 308
263 264 266 267 269 271 273 275 278 279 281 283 284 284 285 286 287 288 290 291 292 293 294 295 297 299 300 300 300 302 303 304 305 306 307 307 308 308 309 310 310 310 310
263 264 266 268 270 271 272 274 277 279 281 283 284 285 286 287 287 289 290 291 292 294 296 297 297 298 299 300 302 303 304 305 305 306 307 308 309 310 310 311 311 311 310
264 265 266 268 270 271 273 275 277 279 281 283 284 285 285 287 288 290 291 292 293 294 296 297 297 298 299 300 302 303 304 305 305 306 308 308 309 309 310 310 311 311 311
264 265 266 268 270 273 275 276 278 279 281 282 283 284 285 286 288 290 291 292 293 294 295 296 297 299 299 300 301 302 302 303 305 306 308 308 308 309 310 311 311 311 312
265 266 267 268 270 273 275 277 279 279 281 281 282 284 284 286 289 290 291 292 293 294 295 296 298 299 300 300 300 301 302 303 305 306 307 307 308 309 310 311 312 312 311
Height
5859 5860 5860 5860 5860 5860 5860 5860 5860 5860 5860 5860 5860 5859 5859 5858 5858 5857 5856 5856 5855 5854 5853 5852 5852 5851 5850 5848 5847 5846 5845 5844 5842 5841 5839 5837 5836 5834 5832 5831 5829 5827 5826
5858 5858 5858 5859 5859 5859 5859 5859 5859 5859 5858 5858 5858 5858 5858 5857 5856 5856 5855 5854 5853 5852 5851 5850 5849 5848 5847 5846 5844 5843 5842 5840 5839 5837 5835 5834 5832 5830 5828 5826 5824 5822 5820
5856 5856 5857 5857 5857 5857 5857 5857 5857 5857 5857 5856 5856 5856 5856 5855 5854 5854 5853 5852 5851 5850 5849 5848 5847 5845 5844 5843 5841 5839 5838 5836 5835 5833 5831 5829 5827 5825 5823 5821 5819 5817 5814
5854 5854 5855 5855 5855 5855 5855 5855 5855 5855 5855 5854 5854 5854 5854 5853 5852 5851 5850 5849 5848 5847 5846 5845 5844 5842 5840 5839 5837 5836 5834 5832 5830 5828 5826 5824 5822 5820 5817 5815 5813 5810 5808
5852 5852 5852 5853 5853 5853 5853 5853 5853 5852 5852 5852 5852 5851 5851 5850 5849 5848 5847 5846 5845 5844 5843 5842 5840 5838 5837 5835 5833 5831 5829 5828 5826 5824 5822 5819 5817 5814 5812 5809 5807 5804 5801
5849 5849 5850 5850 5850 5850 5850 5850 5850 5850 5850 5849 5849 5849 5848 5847 5846 5845 5844 5843 5842 5841 5839 5838 5836 5834 5833 5831 5829 5827 5825 5823 5821 5818 5816 5814 5811 5809 5806 5803 5801 5798 5795
5846 5847 5847 5847 5847 5847 5847 5847 5847 5847 5847 5846 5846 5845 5845 5844 5842 5841 5840 5839 5838 5837 5835 5834 5832 5830 5828 5826 5824 5822 5820 5818 5816 5813 5811 5808 5806 5803 5800 5797 5794 5791 5788
5844 5844 5844 5844 5844 5844 5843 5843 5843 5843 5843 5843 5842 5842 5841 5840 5839 5837 5836 5835 5834 5833 5831 5829 5827 5825 5823 5821 5819 5817 5814 5812 5810 5807 5805 5802 5799 5796 5793 5790 5787 5784 5781
5840 5841 5841 5840 5840 5840 5840 5840 5840 5840 5839 5839 5838 5837 5836 5835 5834 5833 5832 5831 5830 5828 5826 5824 5822 5820 5818 5816 5814 5811 5809 5806 5803 5800 5798 5795 5792 5789 5786 5783 5779 5776 5773
5836 5837 5837 5837 5837 5836 5836 5836 5836 5835 5835 5835 5834 5833 5832 5831 5830 5829 5827 5826 5825 5823 5821 5819 5817 5815 5812 5810 5808 5805 5802 5799 5796 5793 5790 5787 5784 5781 5777 5774 5771 5768 5764
5833 5833 5833 5833 5833 5832 5832 5832 5832 5831 5831 5830 5829 5828 5827 5826 5825 5824 5822 5821 5819 5818 5816 5814 5811 5809 5806 5804 5801 5798 5795 5793 5789 5786 5783 5780 5776 5773 5769 5765 5762 5759 5755
5828 5828 5828 5828 5828 5828 5828 5828 5827 5826 5826 5825 5824 5823 5822 5821 5820 5818 5817 5815 5814 5812 5810 5807 5805 5802 5800 5797 5794 5791 5788 5785 5782 5779 5775 5772 5768 5764 5761 5757 5753 5749 5745
5823 5823 5823 5823 5823 5823 5823 5823 5822 5821 5821 5820 5819 5818 5817 5816 5814 5813 5811 5809 5807 5805 5803 5801 5798 5796 5793 5790 5787 5784 5781 5778 5775 5771 5768 5764 5760 5756 5752 5748 5744 5739 5735
5818 5818 5818 5818 5818 5818 5818 5817 5817 5816 5815 5814 5813 5812 5811 5810 5808 5807 5805 5803 5801 5799 5797 5794 5792 5789 5787 5784 5781 5777 5774 5770 5767 5763 5760 5756 5752 5748 5744 5739 5735 5731 5726
5812 5812 5812 5812 5812 5812 5812 5811 5811 5810 5810 5809 5808 5806 5805 5803 5802 5800 5798 5797 5794 5792 5790 5788 5785 5783 5780 5776 5773 5770 5766 5762 5759 5755 5752 5748 5744 5739 5735 5730 5726 5721 5716
5806 5806 5806 5806 5806 5806 5805 5805 5804 5804 5803 5802 5801 5800 5798 5797 5795 5793 5792 5790 5788 5785 5783 5781 5778 5775 5772 5769 5766 5762 5758 5755 5751 5747 5743 5739 5735 5730 5726 5721 5716 5711 5706
5800 5800 5800 5800 5800 5800 5799 5799 5798 5798 5797 5796 5795 5793 5792 5790 5788 5786 5785 5783 5781 5778 5776 5773 5771 5768 5764 5761 5758 5754 5750 5746 5742 5738 5734 5730 5725 5721 5716 5711 5705 5700 5695
5793 5793 5794 5793 5793 5793 5793 5792 5792 5791 5790 5789 5788 5786 5785 5783 5781 5780 5778 5776 5773 5771 5768 5766 5763 5760 5756 5753 5749 5746 5742 5737 5733 5729 5724 5720 5715 5710 5705 5700 5694 5688 5683
5786 5787 5787 5787 5786 5786 5786 5785 5785 5784 5783 5782 5780 5779 5777 5776 5774 5772 5770 5768 5766 5763 5760 5757 5754 5751 5748 5744 5741 5737 5732 5728 5724 5719 5715 5710 5705 5700 5694 5688 5682 5676 5670
5779 5779 5780 5780 5779 5779 5779 5778 5777 5776 5775 5774 5773 5771 5769 5768 5766 5764 5762 5760 5757 5755 5752 5749 5746 5742 5739 5735 5731 5727 5723 5719 5714 5709 5705 5699 5694 5689 5683 5677 5671 5665 5658
5771 5772 5772 5772 5772 5772 5771 5771 5770 5769 5768 5766 5765 5763 5762 5760 5758 5756 5754 5751 5749 5746 5743 5740 5737 5733 5729 5726 5722 5718 5713 5709 5704 5699 5694 5689 5684 5678 5672 5665 5659 5653 5647
5763 5763 5764 5764 5763 5763 5763 5762 5761 5760 5759 5758 5756 5755 5753 5751 5749 5747 5745 5743 5740 5737 5734 5730 5727 5724 5720 5716 5712 5708 5703 5699 5694 5689 5684 5678 5673 5667 5661 5654 5648 5641 5635
5754 5755 5755 5755 5755 5754 5754 5753 5752 5751 5750 5749 5748 5746 5744 5742 5740 5738 5735 5733 5730 5727 5724 5720 5717 5714 5710 5706 5702 5698 5694 5689 5684 5679 5673 5668 5662 5656 5650 5643 5637 5631 5624
5746 5746 5746 5746 5746 5745 5745 5744 5743 5743 5742 5740 5738 5737 5735 5733 5731 5728 5725 5723 5720 5717 5714 5710 5707 5704 5700 5696 5692 5687 5683 5678 5673 5668 5663 5657 5651 5645 5639 5633 5627 5620 5614
5736 5737 5737 5737 5737 5736 5736 5735 5734 5733 5732 5730 5729 5727 5725 5723 5721 5718 5715 5712 5709 5706 5703 5700 5697 5693 5689 5685 5681 5677 5672 5667 5662 5657 5651 5646 5640 5634 5628 5622 5616 5610 5604
5727 5727 5727 5727 5727 5727 5726 5725 5724 5723 5722 5720 5719 5717 5715 5713 5711 5708 5705 5702 5699 5696 5693 5690 5686 5683 5679 5674 5670 5666 5661 5656 5651 5645 5640 5634 5629 5623 5617 5612 5606 5600 5594